Retour au catalogue

STARLINK-35876

ActifCommunicationsVLEO
NORAD 67180·PAYLOAD·🇺🇸 United States

Lancé Dec 17, 2025 depuis Cape Canaveral Space Force Station

Loading…

Prochains Passages (prochaines 24 heures)

TLE

FraisSource: CelesTrak SupGP

Époque: Sep 15, 2026, 04:00 UTC

1 67180C 25303T   26258.16715278  .00036944  00000+0  13379-2 0  2583
2 67180  43.0032 320.5621 0001245 262.4744 118.6929 15.27566264    17

Suivez STARLINK-35876 en temps réel avec AllMySat

Download on the App Store